Lid_Strength_Index
3 2 2 2 2 1 1 1 1 1 1 1 1 2 2 2 2 3 3 3 6 9 7 6 6 7 7 6 9 6 6 5 6 9 9 9 9 8 9 8 9 10 12 13 12 13 13 6 7 8 6 5 5 5
2 2 2 2 2 1 1 1 1 1 1 1 2 2 2 2 2 2 4 4 4 8 8 5 5 4 4 4 6 5 6 6 5 7 7 8 9 8 9 11 6 10 8 10 10 11 7 6 6 6 5 6 5 5
3 2 2 2 2 2 1 1 1 1 1 1 1 2 2 2 2 2 3 5 6 9 9 9 8 5 4 3 3 8 6 5 5 3 6 7 9 7 11 9 8 6 5 8 9 8 8 7 6 6 6 6 5 5
3 2 2 2 2 2 1 1 1 2 1 1 1 2 2 2 2 2 4 5 6 9 12 8 4 6 4 4 4 4 6 5 5 6 8 8 9 5 8 7 8 7 6 7 8 7 7 7 6 6 6 6 6 5
3 2 2 3 3 2 2 1 2 1 2 1 2 2 3 3 3 2 2 3 4 8 10 9 5 5 4 4 5 5 6 7 8 9 9 10 8 8 8 7 8 5 7 9 9 6 6 6 5 5 6 6 5 5
3 2 3 3 3 2 2 2 2 2 2 2 2 3 3 3 4 3 6 3 3 5 10 12 6 6 5 5 6 6 6 6 8 10 10 9 8 11 13 11 7 7 5 5 7 5 5 5 5 5 6 6 5 5
3 3 3 3 3 2 2 2 2 2 2 2 2 3 3 3 3 5 5 4 4 5 10 12 11 7 6 6 6 6 7 8 10 12 12 12 11 11 13 15 10 10 8 7 5 5 7 6 6 5 5 5 5 5
3 3 3 2 3 2 2 2 2 2 1 2 3 3 4 4 5 5 3 4 4 7 9 13 12 9 7 9 9 8 11 11 12 12 12 13 12 13 16 12 11 10 9 9 8 6 6 4 5 6 5 5 6 6
3 3 2 3 3 3 3 2 2 1 1 3 3 3 2 3 4 5 4 5 5 7 11 12 13 12 7 9 8 9 11 13 11 13 13 13 14 15 15 13 10 7 6 6 6 7 6 6 5 5 6 6 6 6
3 3 3 3 2 2 2 2 1 2 2 3 2 3 5 3 4 4 6 6 7 8 9 11 10 11 9 8 9 9 9 11 13 11 11 14 14 9 9 9 8 7 6 6 6 6 6 6 6 5 5 6 6 5
3 3 3 3 2 2 2 2 2 2 3 1 2 3 2 3 5 4 6 7 6 8 8 7 9 10 7 10 10 8 9 10 14 10 10 13 13 10 8 8 7 7 6 5 4 5 5 5 5 5 5 4 4 3
3 3 3 2 2 2 2 2 2 1 0 2 1 1 1 4 5 7 8 7 8 9 6 7 7 6 6 6 9 7 9 8 12 7 11 15 10 8 8 8 7 7 6 6 6 5 5 5 5 5 5 5 4 5
3 3 3 2 2 2 2 2 2 3 3 -0 1 4 6 5 12 11 14 10 10 7 6 6 7 6 5 5 6 7 10 11 6 11 15 12 9 7 7 7 7 6 6 7 7 7 6 6 6 6 6 7 7 8
3 3 3 2 2 2 2 2 2 2 1 2 5 12 8 9 7 8 8 7 5 4 5 5 6 5 5 7 7 10 8 8 12 15 14 9 8 7 6 6 6 6 6 6 7 7 8 7 7 6 6 7 8 9
3 3 2 2 2 2 2 2 2 -1 1 4 4 11 7 5 4 4 3 4 3 3 4 5 5 5 6 7 7 8 10 13 13 13 10 7 6 5 5 6 6 6 6 6 6 7 7 7 8 8 7 7 7 8
3 2 -0 2 2 2 2 1 -1 -1 1 3 4 6 4 5 5 4 4 4 3 3 3 3 6 8 8 7 9 11 13 14 11 8 6 5 5 4 4 4 5 5 6 6 6 6 6 6 7 7 7 8 7 6
3 -0 2 2 2 2 2 -1 -0 2 3 5 6 3 4 4 5 4 3 3 2 4 6 5 8 9 6 9 10 8 10 8 7 6 4 4 4 3 3 4 4 4 4 5 5 4 5 5 5 5 6 5 6 6
-0 -1 2 2 2 -0 -1 0 1 3 6 4 6 4 3 3 4 3 3 2 3 4 4 6 4 7 9 10 9 7 6 5 4 4 4 3 3 3 3 4 4 4 4 4 4 4 4 5 5 5 4 4 5 6
-0 1 2 3 1 1 2 2 2 5 4 3 3 2 3 3 2 2 2 2 2 2 3 4 6 8 7 6 7 6 5 5 5 4 4 2 2 3 3 3 3 4 5 5 5 5 5 4 4 5 4 4 5 5
3 3 2 2 1 1 4 3 1 3 5 3 2 4 4 3 3 2 3 3 3 4 5 6 6 6 6 5 5 5 5 4 5 5 5 4 3 3 3 4 5 4 5 4 5 6 4 4 4 4 4 5 5 5
3 0 0 0 -1 0 2 2 3 3 3 4 3 3 5 3 3 4 4 3 4 5 6 4 4 4 3 3 3 4 4 4 5 5 5 6 5 4 4 4 4 4 5 5 5 4 5 5 4 4 5 5 5 4
-1 1 -0 -0 1 2 2 1 3 2 4 3 4 3 4 5 4 4 3 4 5 4 4 4 4 4 3 3 3 3 3 3 3 4 5 5 5 5 5 5 5 5 5 5 4 4 4 4 4 4 4 4 5 5
2 0 1 1 4 5 6 1 5 4 6 5 4 6 5 4 4 2 4 3 3 2 2 3 2 2 2 2 2 2 3 4 5 5 5 5 5 4 5 4 4 5 5 5 4 4 4 6 5 4 4 4 5 5
4 2 4 4 4 7 3 5 2 4 4 5 5 7 6 5 3 4 5 4 3 2 3 2 2 3 3 2 3 3 4 4 4 5 4 5 5 5 4 5 4 4 4 4 4 4 4 4 5 4 5 5 5 5
7 7 6 10 4 6 6 6 5 4 7 6 7 6 5 3 6 6 6 4 3 3 2 2 3 3 3 3 4 4 3 4 5 5 5 5 5 5 5 5 4 4 4 4 4 5 5 5 5 5 5 6 6 5
10 5 9 5 4 6 5 7 7 7 6 7 6 3 3 5 8 8 5 3 3 2 2 3 4 4 3 3 4 4 4 4 4 5 5 4 5 5 5 6 6 5 4 4 4 5 5 5 5 5 5 6 8 6
9 6 3 1 3 3 5 4 3 5 7 7 5 5 6 8 8 5 3 1 2 2 1 2 3 3 3 3 3 3 3 3 4 4 3 3 3 3 4 5 5 4 3 3 3 4 4 4 5 5 5 5 5 5
4 4 6 4 4 3 6 5 6 7 5 3 4 7 8 7 7 3 2 1 0 1 1 2 2 2 3 2 2 2 2 2 2 2 2 2 2 3 3 2 3 6 3 3 3 3 3 3 4 4 4 4 4 4
5 3 3 5 5 5 5 6 5 4 2 3 5 6 5 3 2 1 1 -0 0 0 1 2 2 1 1 2 2 1 2 3 4 5 5 5 4 4 3 3 2 2 2 3 7 5 3 4 3 3 4 3 4 4
5 2 5 5 6 6 5 3 4 3 2 2 2 2 3 2 2 0 0 0 1 1 1 1 1 2 3 3 2 2 1 2 2 4 5 5 4 3 3 3 3 3 3 3 3 3 5 4 4 3 4 4 4 4
2 3 4 5 5 4 3 2 2 2 2 3 2 3 3 3 2 1 1 1 1 1 -0 1 1 1 2 2 3 3 4 3 2 3 3 3 3 3 2 2 2 2 3 3 3 4 4 4 4 4 4 5 5 5
3 4 5 5 5 3 2 3 3 4 3 3 3 2 2 3 5 3 1 0 0 0 5 3 2 2 1 2 2 2 7 2 1 2 3 3 3 2 2 2 2 2 2 2 3 3 3 4 4 4 5 5 5 5
3 4 4 4 4 4 3 3 4 5 4 4 4 4 3 4 5 2 1 1 1 1 2 2 2 1 1 2 2 2 5 2 5 7 7 7 7 6 4 2 2 2 3 3 3 3 3 4 4 4 4 4 4 4